DW5978 Whyalla SA AU current weather conditions

sailwx.info

Wind from 285 at 6 knots gusting 16

Air temperature 18.3° C
Dewpoint 10.9° C

Last reported at 2014-Jul-29 01:46 UTC.
Time now 2014-Jul-29 02:34 UTC

Location: S 33°01' E 137°32'.
View on Google Maps.

See reports from other nearby stations

  
Tides and Currents Weather Stations Pressure Air Temp Water Temp Dewpoint Dewpoint Depression Visibility Wind Speed Wind Dir Waves Ship Positions
date/time (UTC)wind fromknots sea level pressurealtimeterstation pressurevisibilityair tempwater tempwave heightnotes
2014-Jul-29 01:46 285 6 gusting 16 18.3
2014-Jul-29 01:31 281 6 gusting 10 18.3
2014-Jul-29 01:16 271 8 gusting 13 17.8
2014-Jul-29 01:01 300 8 gusting 13 16.7
2014-Jul-29 00:46 278 6 gusting 13 16.7
2014-Jul-29 00:31 290 6 gusting 11 15.6
2014-Jul-29 00:15 291 6 gusting 13 15.0
2014-Jul-29 00:00 296 6 gusting 13 14.4
2014-Jul-28 23:45 300 6 gusting 13 13.9
2014-Jul-28 23:30 282 6 gusting 11 13.3
2014-Jul-28 23:15 302 5 gusting 9 12.8
2014-Jul-28 23:00 300 5 gusting 10 12.2
2014-Jul-28 22:45 291 3 gusting 6 11.1
2014-Jul-28 22:30 314 2 gusting 6 10.0
2014-Jul-28 22:15 328 4 gusting 7 10.0
2014-Jul-28 22:00 325 4 gusting 6 10.0
2014-Jul-28 21:45 322 3 gusting 6 10.0
2014-Jul-28 21:30 341 4 gusting 9 10.0
2014-Jul-28 21:15 353 7 gusting 11 10.6
2014-Jul-28 21:00 330 6 gusting 10 10.0
2014-Jul-28 20:45 325 5 gusting 9 10.6
2014-Jul-28 20:30 315 6 gusting 10 10.6
2014-Jul-28 20:15 347 6 gusting 10 11.1
2014-Jul-28 20:00 322 5 gusting 9 11.1
2014-Jul-28 19:45 315 4 gusting 7 11.1
2014-Jul-28 19:30 333 5 gusting 7 11.7
2014-Jul-28 19:15 316 4 gusting 9 11.7
2014-Jul-28 19:00 348 5 gusting 8 11.7
2014-Jul-28 18:45 326 6 gusting 11 11.7
2014-Jul-28 18:30 341 5 gusting 10 12.2
2014-Jul-28 18:15 328 5 gusting 8 11.7
2014-Jul-28 18:00 349 6 gusting 10 11.7
2014-Jul-28 17:45 344 6 gusting 7 11.7
2014-Jul-28 17:29 347 4 gusting 8 12.2
2014-Jul-28 17:14 330 5 gusting 7 12.2
2014-Jul-28 16:59 314 4 gusting 8 12.2
2014-Jul-28 16:44 300 5 gusting 8 12.8
2014-Jul-28 16:29 330 5 gusting 7 12.8
2014-Jul-28 16:14 316 4 gusting 6 12.2
2014-Jul-28 15:59 330 4 gusting 6 12.2
2014-Jul-28 15:44 336 3 gusting 5 12.2
2014-Jul-28 15:29 333 3 gusting 6 12.2
2014-Jul-28 15:14 300 3 gusting 6 12.8
2014-Jul-28 14:59 309 2 gusting 4 12.2
2014-Jul-28 14:44 326 0 gusting 3 12.2
2014-Jul-28 14:29 335 3 gusting 4 12.2
2014-Jul-28 14:14 333 1 gusting 4 12.2
2014-Jul-28 13:59 339 2 gusting 4 12.8
2014-Jul-28 13:44 333 1 gusting 3 12.8
2014-Jul-28 13:29 307 0 gusting 3 13.3
2014-Jul-28 13:15 330 1 gusting 5 13.3
2014-Jul-28 12:59 339 2 gusting 4 12.8
2014-Jul-28 12:44 319 0 gusting 2 12.2
2014-Jul-28 12:29 319 0 gusting 1 11.7
2014-Jul-28 12:15 316 11.1
2014-Jul-28 12:00 316 11.7
2014-Jul-28 11:45 316 0 gusting 1 12.2
2014-Jul-28 11:30 316 0 gusting 1 12.8
2014-Jul-28 11:15 321 0 gusting 0 12.2
2014-Jul-28 11:00 321 12.2
2014-Jul-28 10:45 321 12.2
2014-Jul-28 10:30 321 12.8
2014-Jul-28 10:15 167 0 gusting 0 12.8
2014-Jul-28 10:00 167 13.3
2014-Jul-28 09:45 167 13.3
2014-Jul-28 09:29 167 13.9
2014-Jul-28 09:14 167 13.9
2014-Jul-28 08:59 167 14.4
2014-Jul-28 08:44 167 15.0
2014-Jul-28 08:29 168 15.6
2014-Jul-28 08:14 167 16.1
2014-Jul-28 07:59 167 1 gusting 3 16.1
2014-Jul-28 07:44 160 1 gusting 3 16.1
2014-Jul-28 07:29 170 0 gusting 4 16.7
2014-Jul-28 07:14 150 2 gusting 6 16.7
2014-Jul-28 06:59 143 1 gusting 4 17.2
2014-Jul-28 06:44 135 3 gusting 7 17.2
2014-Jul-28 06:29 148 3 gusting 6 17.8
2014-Jul-28 06:14 137 1 gusting 6 17.8
2014-Jul-28 05:59 199 6 gusting 8 19.4
2014-Jul-28 05:44 181 2 gusting 12 21.7
2014-Jul-28 05:29 300 6 gusting 9 22.2
2014-Jul-28 05:14 256 6 gusting 12 22.2
2014-Jul-28 04:59 270 6 gusting 11 22.8
2014-Jul-28 04:44 304 8 gusting 13 22.8
2014-Jul-28 04:29 347 6 gusting 13 22.2
2014-Jul-28 04:14 288 7 gusting 12 22.2
2014-Jul-28 03:59 288 8 gusting 13 22.8
2014-Jul-28 03:44 300 7 gusting 13 22.2
2014-Jul-28 03:29 315 5 gusting 10 21.7
2014-Jul-28 03:14 294 6 gusting 13 21.1
2014-Jul-28 02:59 312 7 gusting 11 20.6
2014-Jul-28 02:44 328 4 gusting 9 20.0
2014-Jul-28 02:28 294 4 gusting 8 19.4
2014-Jul-28 02:13 293 3 gusting 7 18.3
2014-Jul-28 01:58 291 4 gusting 9 17.8
2014-Jul-28 01:43 317 3 gusting 9 17.8
2014-Jul-28 01:28 300 4 gusting 7 17.8
2014-Jul-28 01:13 302 4 gusting 7 17.2
2014-Jul-28 00:58 327 2 gusting 6 16.7
2014-Jul-28 00:43 347 4 gusting 8 15.6
2014-Jul-28 00:28 335 4 gusting 8 15.6
2014-Jul-28 00:13 311 6 gusting 13 15.6
2014-Jul-27 23:58 312 8 gusting 13 16.1
2014-Jul-27 23:43 330 6 gusting 13 15.0
2014-Jul-27 23:28 314 6 gusting 12 13.9
2014-Jul-27 23:13 307 5 gusting 9 12.8
2014-Jul-27 22:58 300 4 gusting 7 12.2
2014-Jul-27 22:43 300 3 gusting 8 11.7
2014-Jul-27 22:28 316 5 gusting 7 11.7
2014-Jul-27 22:13 305 4 gusting 7 11.1
2014-Jul-27 21:58 322 5 gusting 7 10.6
2014-Jul-27 21:43 297 5 gusting 7 10.0
2014-Jul-27 21:27 305 3 gusting 5 10.0
2014-Jul-27 21:12 296 4 gusting 7 11.7
2014-Jul-27 20:57 307 5 gusting 9 12.2
2014-Jul-27 20:42 308 5 gusting 7 12.2
2014-Jul-27 20:27 330 4 gusting 10 11.7
2014-Jul-27 20:12 330 5 gusting 9 12.2
2014-Jul-27 19:57 307 6 gusting 11 12.8
2014-Jul-27 19:42 333 7 gusting 16 12.8
2014-Jul-27 19:27 344 9 gusting 15 12.8
2014-Jul-27 19:12 336 6 gusting 12 12.8
2014-Jul-27 18:57 339 6 gusting 13 12.8
2014-Jul-27 18:42 347 7 gusting 13 12.2
2014-Jul-27 18:27 339 6 gusting 13 12.2
2014-Jul-27 18:12 319 7 gusting 13 12.2
2014-Jul-27 17:57 319 6 gusting 13 12.2
2014-Jul-27 17:42 344 6 gusting 12 11.7
2014-Jul-27 17:27 339 4 gusting 8 11.7
2014-Jul-27 17:12 321 5 gusting 12 12.2
2014-Jul-27 16:57 328 6 gusting 11 12.2
2014-Jul-27 16:42 319 4 gusting 6 12.8
2014-Jul-27 16:12 346 8 gusting 12 13.9
2014-Jul-27 15:57 345 7 gusting 13 13.9
2014-Jul-27 15:42 001 7 gusting 13 13.9
2014-Jul-27 15:27 339 7 gusting 11 13.9
2014-Jul-27 15:12 343 6 gusting 10 13.3
2014-Jul-27 14:57 351 6 gusting 11 12.8
2014-Jul-27 14:42 005 6 gusting 10 12.8
2014-Jul-27 14:27 339 3 gusting 7 12.2
2014-Jul-27 14:12 346 3 gusting 6 11.1
2014-Jul-27 13:57 316 2 gusting 6 10.6
2014-Jul-27 13:42 316 2 gusting 6 11.1
2014-Jul-27 13:27 302 6 gusting 8 12.8
2014-Jul-27 13:12 321 6 gusting 10 13.9
2014-Jul-27 12:57 341 6 gusting 10 14.4
2014-Jul-27 12:42 327 6 gusting 11 14.4
2014-Jul-27 12:27 008 4 gusting 7 13.9
2014-Jul-27 12:12 343 5 gusting 7 13.3
2014-Jul-27 11:57 343 6 gusting 8 13.9
2014-Jul-27 11:42 340 4 gusting 6 12.8
2014-Jul-27 11:27 321 3 gusting 4 12.8
2014-Jul-27 11:11 305 3 gusting 4 12.8
2014-Jul-27 10:56 323 1 gusting 3 11.7
2014-Jul-27 10:41 305 2 gusting 3 11.1
2014-Jul-27 10:26 300 1 gusting 3 13.9
2014-Jul-27 10:11 341 3 gusting 6 15.6
2014-Jul-27 09:56 333 3 gusting 8 16.1
2014-Jul-27 09:41 342 5 gusting 9 16.7
2014-Jul-27 09:26 335 6 gusting 7 16.7
2014-Jul-27 09:11 350 5 gusting 7 16.7
2014-Jul-27 08:56 336 4 gusting 9 17.2
2014-Jul-27 08:41 022 4 gusting 8 17.8
2014-Jul-27 08:26 343 3 gusting 5 17.8
2014-Jul-27 08:11 354 5 gusting 8 18.9
2014-Jul-27 07:56 333 6 gusting 10 20.0
2014-Jul-27 07:41 345 6 gusting 13 20.6
2014-Jul-27 07:26 344 7 gusting 13 21.1
2014-Jul-27 07:11 323 6 gusting 16 21.1
2014-Jul-27 06:56 314 10 gusting 19 21.1
2014-Jul-27 06:41 307 11 gusting 19 21.7
2014-Jul-27 06:26 308 10 gusting 16 21.7
2014-Jul-27 06:11 344 8 gusting 16 21.7
2014-Jul-27 05:56 328 13 gusting 19 21.7
2014-Jul-27 05:41 350 10 gusting 15 21.7
2014-Jul-27 05:26 319 8 gusting 18 21.7
2014-Jul-27 05:11 321 10 gusting 15 21.1
2014-Jul-27 04:56 302 7 gusting 18 21.1
2014-Jul-27 04:41 319 11 gusting 23 21.1
2014-Jul-27 04:26 302 12 gusting 19 21.1
2014-Jul-27 04:11 297 11 gusting 19 20.6
2014-Jul-27 03:56 297 10 gusting 16 20.6
2014-Jul-27 03:41 330 11 gusting 19 20.6
2014-Jul-27 03:26 300 11 gusting 19 20.6
2014-Jul-27 03:11 341 8 gusting 17 20.0
2014-Jul-27 02:56 357 11 gusting 19 19.4
2014-Jul-27 02:40 308 12 gusting 16 19.4
2014-Jul-27 02:25 350 10 gusting 18 18.9
2014-Jul-27 02:10 355 14 gusting 19 18.3